Overview Statistics Trail Chart Weather Telemetry Raw packets
 

This is the latest recevied weather packets stored in our database for station/object KD4EED. If no packets are shown the sender has not sent any weather packets the latest 10 day(s).

<< 67 68 69 70 71 72 73 >>
Time Temp. Humidity Pressure Rain* Wind** Luminosity Snow
1788203709 28.89° C 57% 1011.6 hPa - - 582 W/m² -
1788203405 28.89° C 57% 1011.6 hPa - - 580 W/m² -
1788203113 28.89° C 58% 1011.4 hPa - - 575 W/m² -
1788202798 28.33° C 59% 1011.5 hPa - - 570 W/m² -
1788202494 28.33° C 59% 1011.7 hPa - - 567 W/m² -
1788202194 28.33° C 59% 1011.6 hPa - - 565 W/m² -
1788201889 27.78° C 60% 1011.5 hPa - - 559 W/m² -
1788201584 27.78° C 61% 1011.6 hPa - - 556 W/m² -
1788201283 27.78° C 61% 1011.6 hPa - - 552 W/m² -
1788200983 27.78° C 61% 1011.7 hPa - - 545 W/m² -
1788200679 27.78° C 61% 1011.7 hPa - - 535 W/m² -
1788200374 27.22° C 62% 1011.7 hPa - - 536 W/m² -
1788200070 27.22° C 62% 1011.7 hPa - - 539 W/m² -
1788199769 27.22° C 63% 1011.8 hPa - - 537 W/m² -
1788199463 27.22° C 62% 1011.6 hPa - - 506 W/m² -
1788199163 27.22° C 63% 1011.6 hPa - - 491 W/m² -
1788198860 26.67° C 66% 1011.8 hPa - - 459 W/m² -
1788198555 26.11° C 66% 1011.5 hPa - - 472 W/m² -
1788198251 26.11° C 68% 1011.7 hPa - - 458 W/m² -
1788197950 25.56° C 68% 1011.4 hPa - - 462 W/m² -
1788197649 25.56° C 69% 1011.7 hPa - - 350 W/m² -
1788197345 25° C 70% 1011.6 hPa - - 138 W/m² -
1788197041 25° C 70% 1011.5 hPa - - 156 W/m² -
1788196740 25° C 70% 1011.6 hPa - - 131 W/m² -
1788196437 24.44° C 72% 1011.7 hPa - - 132 W/m² -

* Rain since midnight (hover to see other rain measurements)
** Current wind speed in m/s (hover to see current wind gust speed)